Theta_e
355 361 362 364 364 363 363 362 363 363 363 364 363 364 363 362 361 363 363 363 362 363 363 363 362 362 363 362 361 361 363 362 362 361 362 362 361 359 359 358 359 358 362
357 360 362 364 365 363 363 363 362 362 362 362 362 361 362 361 362 363 362 362 362 361 361 361 360 361 362 361 361 361 362 360 360 360 359 361 361 361 359 358 359 360 363
356 360 361 363 365 362 362 362 362 360 361 361 361 361 362 362 362 361 361 360 360 359 359 359 359 358 357 357 358 359 359 358 358 359 361 359 356 361 359 358 361 362 362
356 358 360 363 364 362 361 361 362 361 360 359 359 360 361 360 360 359 358 357 358 358 357 356 355 355 354 355 355 353 353 355 356 358 359 357 355 362 361 358 359 359 360
355 359 362 364 363 363 362 361 361 361 359 359 359 360 360 359 359 358 358 357 356 356 355 356 356 356 355 355 354 354 354 353 355 357 359 361 358 359 363 360 360 360 359
357 358 363 364 363 363 362 361 361 359 359 359 358 358 357 358 357 356 358 359 359 359 358 357 357 356 357 357 357 358 356 355 356 353 355 359 356 362 360 360 359 357 359
352 357 359 364 362 362 361 361 361 360 359 358 357 357 357 359 359 359 359 359 358 358 358 357 357 358 358 359 359 360 361 362 357 352 355 356 357 363 360 360 359 358 356
349 355 358 364 364 363 362 362 361 360 359 359 358 359 359 359 360 359 358 358 357 358 358 359 360 360 362 362 362 362 363 363 358 356 354 355 359 363 359 359 359 357 349
347 351 355 356 361 363 363 360 362 361 360 361 359 358 359 359 359 359 359 358 357 358 360 361 362 363 364 364 364 365 365 364 361 357 354 356 362 362 359 360 360 359 353
346 349 354 356 355 355 358 362 361 360 359 360 360 359 360 361 361 360 362 362 362 362 364 366 366 366 367 367 367 366 366 367 361 362 361 359 362 361 359 360 362 360 355
343 347 352 354 356 361 360 359 359 360 362 362 361 361 360 359 361 363 365 362 364 365 367 368 369 371 372 370 371 371 368 364 364 361 359 360 359 359 360 362 363 361 357
340 344 350 352 354 356 353 362 359 360 360 361 361 363 362 363 365 361 368 368 368 369 366 369 372 373 367 363 364 372 367 362 357 359 357 365 363 360 361 362 364 362 357
341 343 347 352 355 353 353 354 354 353 353 356 361 362 364 364 365 366 366 366 367 369 367 367 368 364 366 359 361 359 361 360 357 358 361 365 360 359 359 362 363 363 361
340 342 345 352 357 355 353 351 353 351 353 354 358 365 367 365 365 367 366 363 364 363 364 365 360 362 363 359 360 359 358 358 356 358 360 365 362 359 357 359 361 362 363
340 341 344 352 359 358 358 354 355 356 354 357 359 363 364 361 365 368 366 364 364 364 366 364 361 361 359 357 362 362 356 354 356 353 357 365 364 360 358 358 358 358 362
343 343 344 349 356 357 357 359 358 358 361 360 361 362 368 365 367 363 367 365 366 364 360 360 362 361 357 355 354 361 356 356 357 358 357 364 364 360 358 358 359 360 360
348 348 348 348 351 357 360 361 362 360 359 358 363 364 366 368 373 370 365 360 371 362 366 365 362 366 358 356 356 359 358 356 355 357 357 357 363 359 358 356 357 355 356
349 352 351 346 350 356 362 363 360 360 360 362 360 363 367 369 370 370 362 361 363 364 358 354 359 361 357 360 357 355 353 354 357 359 359 361 361 360 357 357 350 346 347
351 354 353 352 351 356 363 362 362 362 361 363 364 365 368 366 365 367 362 358 364 358 356 353 356 362 357 354 356 352 354 358 357 358 362 365 365 364 360 349 348 349 348
352 355 357 356 358 360 360 363 359 358 358 361 367 366 365 366 365 367 362 363 364 356 352 359 365 363 361 359 354 350 353 355 355 360 357 359 365 360 358 358 359 354 349
351 354 357 357 365 361 358 356 354 352 355 357 362 364 366 369 364 367 358 359 362 360 363 365 364 361 355 363 355 349 348 355 354 356 358 359 360 360 358 357 356 355 349
348 353 357 359 362 363 358 358 355 355 353 356 361 367 366 368 368 364 364 361 360 357 371 370 370 361 357 358 353 351 339 342 348 356 358 356 357 358 356 356 351 351 352
347 351 356 361 362 366 367 359 359 360 359 356 357 358 363 369 369 364 369 369 370 370 355 369 366 367 359 358 365 354 342 338 344 355 359 357 357 354 353 353 351 350 350
345 350 356 360 363 365 370 366 372 355 352 352 355 358 366 368 366 363 369 370 374 366 375 366 374 369 374 360 359 361 364 356 344 339 349 360 358 352 352 351 349 348 349
346 347 351 360 365 367 371 371 362 363 354 355 355 363 366 369 368 364 368 369 372 368 374 372 373 373 362 360 353 353 357 354 358 347 339 343 350 350 350 348 347 347 346
345 347 349 359 370 368 369 367 372 368 363 356 358 355 355 356 361 371 365 368 372 372 371 371 375 374 374 369 362 361 356 349 346 344 342 347 343 349 347 346 345 345 346
Wind_Speed
11 14 14 17 17 16 17 16 15 14 14 14 14 13 12 13 13 14 13 14 14 14 13 13 14 13 12 10 8 7 7 6 6 5 6 7 6 5 2 1 2 8 11
15 16 14 15 16 16 16 16 15 14 13 14 13 13 12 13 12 13 13 13 13 13 12 12 12 11 10 9 8 7 7 4 4 4 4 7 7 5 2 2 3 10 11
16 17 16 13 15 16 14 14 13 13 12 11 12 11 10 11 11 11 11 11 11 10 10 9 8 8 8 7 6 5 5 3 1 3 6 5 8 7 2 1 5 8 9
19 16 17 13 14 15 13 12 11 11 10 10 9 9 9 9 10 9 8 8 8 8 7 6 5 5 4 3 2 2 1 1 3 7 6 4 6 11 5 2 2 5 6
18 17 17 16 15 14 13 11 10 10 9 8 7 7 7 7 7 6 6 6 5 5 4 3 2 1 1 1 1 1 2 3 7 9 8 4 3 10 9 6 6 6 6
22 21 16 15 14 13 12 11 9 8 7 7 5 5 4 5 4 4 4 3 3 2 3 2 3 2 3 2 2 3 4 5 9 12 9 6 6 11 9 6 4 2 4
21 18 16 13 13 12 11 9 8 7 6 5 3 2 3 3 3 3 3 3 3 4 3 3 3 4 4 4 4 5 6 8 10 9 4 6 10 14 10 7 6 4 2
18 19 15 13 11 12 10 9 8 6 4 3 2 1 2 2 3 3 3 4 4 5 5 5 5 6 6 6 6 7 8 9 11 8 7 3 16 13 11 8 7 5 1
11 18 16 14 11 10 10 8 7 6 3 2 1 0 2 3 5 5 6 6 5 5 6 8 8 8 9 9 9 11 10 9 11 6 8 3 14 13 11 10 9 12 13
9 10 13 15 14 13 12 9 7 5 3 3 3 4 7 10 12 12 11 11 7 7 8 9 11 11 11 13 13 13 13 13 10 9 5 3 8 7 6 8 12 14 15
8 9 7 10 8 8 14 11 10 9 9 9 10 10 10 9 10 8 7 5 7 9 12 12 12 14 16 15 17 17 16 8 14 7 6 10 3 4 7 10 14 16 15
12 14 10 11 10 8 5 10 8 11 9 6 2 3 8 4 2 5 5 8 11 15 6 15 15 16 13 11 7 16 8 6 7 3 4 16 11 9 11 12 10 16 17
12 10 13 7 8 11 5 6 5 4 4 6 4 4 2 4 1 2 2 3 6 12 5 10 10 9 11 7 4 7 8 8 5 3 11 17 12 10 11 13 13 14 18
12 11 11 11 7 2 5 5 3 4 4 3 5 4 4 4 3 5 2 5 2 3 2 3 4 4 5 8 4 5 8 1 5 4 5 18 16 14 12 13 14 14 17
11 10 10 10 8 4 3 3 3 1 5 2 5 6 4 4 2 3 2 3 5 1 5 1 3 6 6 11 2 6 8 8 9 3 2 16 13 11 10 10 12 13 15
11 11 10 11 9 7 6 3 4 5 5 5 2 4 4 5 3 5 3 4 3 2 6 6 6 5 5 8 4 2 9 10 8 8 3 8 12 10 8 6 9 11 13
10 11 12 10 12 9 7 7 6 4 4 4 2 3 4 5 5 5 5 5 1 3 5 6 6 5 6 5 5 4 7 4 4 3 5 7 8 8 8 5 4 2 6
12 10 11 11 13 11 9 7 6 4 3 2 5 3 5 5 4 5 4 6 2 5 2 5 3 4 6 5 6 8 6 7 6 3 6 7 2 6 6 9 6 2 2
11 11 10 9 11 11 8 6 6 3 5 4 5 4 6 6 5 5 3 2 2 5 2 4 8 6 6 2 7 7 6 4 2 8 5 2 3 3 5 9 7 5 4
13 12 10 10 9 10 8 6 6 5 6 3 3 4 5 2 4 4 2 5 5 5 5 7 5 6 6 8 9 9 5 1 3 5 3 7 1 1 1 3 1 4 7
14 12 11 10 10 8 8 7 7 8 7 6 5 4 2 6 4 3 9 5 7 4 5 4 6 4 2 3 7 9 6 3 3 5 7 3 3 2 4 3 2 2 5
15 13 13 11 11 10 8 7 5 4 5 4 4 7 6 5 6 6 3 2 2 6 6 4 5 6 7 7 6 8 7 2 9 5 5 1 7 5 4 6 4 2 5
15 14 13 13 12 11 11 7 6 4 4 4 6 6 8 8 7 4 3 5 4 6 5 4 3 5 3 8 3 4 5 7 9 1 3 3 3 3 5 5 4 2 3
15 15 14 14 13 12 11 9 7 6 7 7 6 5 9 7 6 5 5 5 6 9 5 4 2 4 5 6 1 5 5 2 3 7 5 7 7 6 5 4 2 3 2
16 15 15 14 13 11 12 11 8 9 6 6 7 4 3 2 6 8 6 5 5 7 3 4 4 5 7 6 7 4 3 6 8 4 8 8 3 7 5 3 4 3 3
16 14 13 14 12 13 12 13 10 7 8 7 6 5 7 9 10 11 8 5 6 6 7 5 3 6 6 5 6 6 7 6 8 6 6 8 8 7 5 3 4 4 4
Wind_Direction
107 115 125 123 119 113 109 106 107 102 101 101 95 99 96 87 88 86 83 82 80 78 79 80 79 78 76 72 79 79 73 80 95 99 106 108 111 111 119 138 171 113 120
120 116 126 128 121 116 111 111 110 109 103 101 100 99 94 90 88 80 83 82 81 80 78 76 75 76 77 77 74 65 75 75 100 129 149 146 133 136 172 61 357 118 123
131 126 129 132 125 122 118 114 115 116 109 105 97 92 87 92 90 86 80 78 79 77 75 71 71 73 73 67 64 62 67 74 101 240 212 178 144 150 165 92 101 127 138
110 132 126 126 128 128 127 123 120 118 114 106 96 90 87 82 79 80 79 75 71 68 66 63 64 71 80 86 79 68 46 354 269 267 273 192 179 144 153 166 146 142 153
112 119 115 126 125 130 130 130 127 122 119 109 100 86 76 70 68 67 68 65 65 71 70 62 48 48 89 132 166 205 243 267 270 269 271 299 71 140 156 171 181 188 200
137 107 123 124 124 126 128 131 127 123 120 111 102 85 70 60 59 58 55 58 54 42 40 18 1 340 322 290 253 239 243 258 266 245 221 256 94 142 151 177 240 285 202
110 120 127 130 133 130 132 130 126 125 118 111 105 81 45 33 28 28 11 2 353 346 342 331 319 305 288 276 268 261 256 251 262 282 192 171 154 149 158 182 205 232 248
119 122 135 132 142 143 141 142 145 144 139 130 121 64 30 3 345 327 312 304 309 317 314 305 295 285 279 274 267 258 255 259 266 242 264 151 139 153 162 186 201 168 260
136 123 137 144 138 138 148 154 156 154 149 151 123 259 286 270 258 258 258 255 268 279 283 284 279 270 264 259 252 250 247 252 274 282 263 66 138 156 166 197 207 178 184
138 133 135 139 161 173 156 153 142 146 178 202 216 233 249 246 236 230 235 223 247 265 272 270 266 262 258 249 240 237 237 233 237 277 287 114 136 149 183 208 199 187 186
155 136 151 126 156 150 139 151 170 181 199 208 220 216 246 249 182 202 161 156 243 249 244 245 245 243 237 246 239 224 225 230 212 198 237 176 203 194 208 217 199 194 193
166 153 147 168 143 157 159 145 209 167 197 183 51 185 254 49 328 289 272 210 235 241 286 256 238 236 278 238 200 221 229 274 299 193 218 151 176 217 226 224 217 200 197
164 162 148 178 159 163 157 170 184 184 172 159 191 236 351 330 289 168 270 171 230 228 244 220 219 240 207 4 331 2 351 261 284 296 111 149 171 203 226 227 226 212 203
164 169 164 151 154 225 150 193 131 212 159 231 131 183 216 242 215 287 0 276 220 246 301 349 348 320 335 304 221 262 266 328 270 320 155 163 170 186 212 226 232 230 218
162 162 167 146 156 179 201 155 289 283 183 124 193 158 262 301 292 256 225 340 307 306 301 285 1 344 312 280 99 258 287 315 306 349 281 131 186 183 193 225 236 239 232
162 163 167 160 164 184 204 203 206 214 142 220 225 142 181 276 352 323 272 217 294 331 6 350 6 292 305 299 270 316 305 349 313 15 311 145 167 173 166 213 246 239 240
161 161 155 175 166 178 197 184 215 221 211 214 159 173 207 255 186 288 272 280 143 37 235 217 247 233 279 336 11 297 275 299 295 262 328 135 146 142 136 162 248 309 284
160 159 154 179 156 171 180 181 240 210 251 266 200 159 167 201 232 253 308 130 299 255 299 306 298 333 3 342 325 270 321 318 29 26 32 18 82 148 137 128 138 183 310
159 162 166 164 160 166 178 204 215 214 243 213 276 191 152 215 240 263 293 117 351 276 240 289 19 333 344 357 306 309 342 24 55 78 97 104 85 342 138 169 171 171 208
163 167 179 173 165 173 170 212 245 238 231 248 209 252 162 18 189 262 266 302 295 282 9 23 318 331 328 311 326 347 285 28 34 79 81 63 81 315 85 22 307 201 211
170 177 179 190 170 191 193 203 202 222 209 208 220 190 328 276 261 188 269 162 214 228 32 305 305 332 330 327 325 326 331 121 186 149 68 106 1 130 61 21 335 359 191
177 181 186 198 192 202 207 215 249 220 230 244 204 163 202 269 260 218 293 322 43 316 191 232 294 307 340 340 343 324 337 336 2 95 120 13 38 354 39 83 89 13 336
186 188 193 198 201 204 237 202 197 250 269 252 222 221 199 212 249 220 210 280 315 257 275 181 267 289 307 311 25 308 345 345 323 193 150 126 88 39 5 112 111 117 271
191 192 195 199 204 201 209 234 207 222 225 212 230 219 163 192 219 227 223 248 260 301 317 276 118 332 267 263 337 210 242 300 330 328 328 135 145 96 74 346 8 102 298
194 193 192 190 202 218 192 237 188 229 227 240 243 259 215 275 214 245 230 244 268 251 273 334 308 317 298 313 313 330 311 297 176 274 324 315 56 110 67 347 2 297 39
198 198 187 176 191 199 202 205 231 213 240 263 216 241 226 230 199 207 229 251 265 279 263 271 354 261 260 307 303 295 274 313 327 334 312 312 315 87 57 336 353 327 351